User: anonymous   Login
Location: Bratsk-Energetik
(56.3300°N, 101.7600°E)
Time: 02:27:34
(UTC+08:00)
Language:

ISS - Orbit

View from above orbital plane
View from above orbital plane
View from above satellite
View from above satellite

Ground track
Ground track

The orbit data is extracted from the following two-line orbital elements,

1 25544U 98067A   17083.53823375  .00016717  00000-0  10270-3 0  9024
2 25544  51.6394 100.2546 0007502 333.9084  26.1689 15.54267229  8588
Epoch (UTC): 24 March 2017 12:55:03
Eccentricity: 0.0007502
inclination: 51.6394°
perigee height: 399 km
apogee height: 409 km
right ascension of ascending node: 100.2546°
argument of perigee: 333.9084°
revolutions per day: 15.54267229
mean anomaly at epoch: 26.1689°
orbit number at epoch: 858

The dashed part of the orbit path shows where the satellite is in the earth's shadow,  

DLR